Flag for Cook Islands Weather past 2 weeks in Rarotonga, Cook Islands

Now
68 °F

Sprinkles. More clouds than sun.


Feels Like: 68 °F
Forecast: 69 / 74 °F
Wind: 6 mph from Southeast

Location: Rarotonga

Current Time: Jun 30, 2015 at 10:04:53 AM

Latest Report: Jun 30, 2015 at 9:00 AM


Visibility: N/A

Pressure: 30.01 "Hg

Humidity: 88%

Dew point: 64 °F

Location of RarotongaLocation

Historic Weather in Rarotonga — Graph

°F

Rarotonga temperature yesterday

Maximum temperature yesterday: 77 °F (at 1:00 PM)
Minimum temperature yesterday: 68 °F (at 2:00 AM)
Average temperature yesterday: 71 °F

Past Weeks' High & Low Weather Summary

 TemperatureHumidityPressure
High82 °F (Jun 16, 1:00 PM)100% (Jun 17, 2:00 AM)30.07 "Hg (Jun 17, 2:00 AM)
Low61 °F (Jun 27, 7:00 AM)47% (Jun 19, 1:00 PM)29.74 "Hg (Jun 17, 3:00 PM)
Average72 °F73%29.93 "Hg
* Reported Jun 15 9:00 AM — Jun 30 9:00 AM, Rarotonga, Weather by CustomWeather, © 2015

Note: Actual official high and low records may vary slightly from our data, if they occured in-between our weather recording intervals... More about our weather records

Advertising

Rarotonga weather history for previous 24 hours

 ConditionsComfort  
Time TempWeatherWind HumidityBarometerVisibility
9:00 AM
Tue, Jun 30
68 °FSprinkles. More clouds than sun.6 mph88%30.01 "HgN/A
8:00 AM66 °FSprinkles. Scattered clouds.6 mph94%29.98 "HgN/A
7:00 AM68 °FScattered showers. Passing clouds.5 mph88%29.95 "HgN/A
6:00 AM70 °FSprinkles. Passing clouds.5 mph78%29.95 "HgN/A
5:00 AM70 °FScattered showers. Passing clouds.3 mph78%29.92 "HgN/A
4:00 AM68 °FPassing clouds.8 mph88%29.95 "HgN/A
3:00 AM68 °FSprinkles. Passing clouds.5 mph94%29.95 "HgN/A
2:00 AM68 °FPassing clouds.2 mph88%29.98 "HgN/A
1:00 AM68 °FPassing clouds.1 mph88%30.01 "HgN/A
12:00 AM68 °FScattered showers. Passing clouds.1 mph94%30.01 "HgN/A
11:00 PM
Mon, Jun 29
68 °FPassing clouds.3 mph88%30.01 "HgN/A
10:00 PM68 °FScattered showers. Partly cloudy.3 mph100%30.01 "HgN/A
9:00 PM70 °FPartly cloudy.7 mph83%30.01 "HgN/A
8:00 PM68 °FScattered showers. Partly cloudy.6 mph88%30.01 "HgN/A
7:00 PM68 °FPassing clouds.7 mph94%29.98 "HgN/A
6:00 PM70 °FSprinkles. More clouds than sun.7 mph83%29.98 "HgN/A
5:00 PM70 °FDrizzle. More clouds than sun.7 mph83%29.98 "HgN/A
4:00 PM72 °FScattered showers. Scattered clouds.12 mph73%29.98 "HgN/A
3:00 PM73 °FBroken clouds.10 mph69%29.98 "HgN/A
2:00 PM73 °FPartly sunny.10 mph69%29.98 "HgN/A
1:00 PM77 °FBroken clouds.8 mph61%30.01 "HgN/A
12:00 PM75 °FBroken clouds.7 mph65%30.04 "HgN/A
11:00 AM75 °FBroken clouds.7 mph65%30.04 "HgN/A
10:00 AM75 °FBroken clouds.10 mph65%30.07 "HgN/A
Weather by CustomWeather, © 2015

See weather overviewHow to use our weather pages